Location: Colebrook
(42.0017°N, 73.0973°W)
Time: 10:31:12
(UTC-04:00)

Explorer 7 - All Passes

Search period start: 25 October 2021 00:00
Search period end: 04 November 2021 00:00
Orbit: 484 x 676 km, 50.3° (Epoch: 24 October)

Date Brightness Start Highest point End Pass type
(mag) Time Alt. Az. Time Alt. Az. Time Alt. Az.
25 Oct - 01:00:39 10° NW 01:04:28 29° N 01:08:29 10° ENE night (unlit)
25 Oct - 02:41:09 10° NW 02:45:38 58° NNE 02:50:20 10° ESE night (unlit)
25 Oct - 04:21:52 10° WNW 04:26:04 34° SW 04:30:25 10° SSE visible
25 Oct - 20:03:23 10° S 20:06:21 21° SE 20:09:27 10° E visible
25 Oct - 21:42:26 10° WSW 21:46:25 70° NNW 21:50:41 10° NE night (unlit)
25 Oct - 23:23:47 10° WNW 23:27:28 29° N 23:31:21 10° NE night (unlit)
26 Oct - 01:04:56 10° NW 01:08:52 31° NNE 01:13:00 10° ENE night (unlit)
26 Oct - 02:45:19 10° WNW 02:49:51 81° NNE 02:54:38 10° ESE night (unlit)
26 Oct - 04:26:28 10° W 04:30:04 22° SW 04:33:46 10° S visible
26 Oct - 20:06:47 10° SSW 20:10:19 33° SE 20:14:02 10° ENE visible
26 Oct - 21:46:46 10° W 21:50:40 49° NNW 21:54:51 10° NE night (unlit)
26 Oct - 23:28:16 10° WNW 23:31:52 27° N 23:35:41 10° NE night (unlit)
27 Oct - 01:09:08 10° NW 01:13:13 37° NNE 01:17:31 10° E night (unlit)
27 Oct - 02:49:30 10° WNW 02:54:00 71° SW 02:58:45 10° SE night (unlit)
27 Oct - 04:31:34 10° W 04:34:00 14° SW 04:36:28 10° SSW night (unlit)
27 Oct - 20:10:34 10° SW 20:14:21 55° SE 20:18:23 10° ENE visible
27 Oct - 21:51:13 10° W 21:54:59 38° NNW 21:58:59 10° NE night (unlit)
27 Oct - 23:32:41 10° NW 23:36:17 27° N 23:40:05 10° ENE night (unlit)
28 Oct - 01:13:18 10° NW 01:17:31 46° NNE 01:22:00 10° E night (unlit)
28 Oct - 02:53:46 10° WNW 02:58:07 47° SW 03:02:40 10° SSE night (unlit)
28 Oct - 18:36:40 10° SSE 18:38:37 14° SE 18:40:37 10° E visible
28 Oct - 20:14:35 10° SW 20:18:28 86° SSE 20:22:36 10° ENE visible
28 Oct - 21:55:42 10° WNW 21:59:20 31° NNW 22:03:10 10° NE night (unlit)
28 Oct - 23:37:01 10° NW 23:40:41 28° N 23:44:34 10° ENE night (unlit)
29 Oct - 01:17:26 10° NW 01:21:47 62° NNE 01:26:23 10° ESE night (unlit)
29 Oct - 02:58:10 10° WNW 03:02:09 30° SW 03:06:17 10° SSE night (unlit)
29 Oct - 18:39:31 10° S 18:42:32 22° SE 18:45:39 10° E visible
29 Oct - 20:18:48 10° WSW 20:22:40 64° NNW 20:26:46 10° NE visible
29 Oct - 22:00:12 10° WNW 22:03:43 27° N 22:07:25 10° NE night (unlit)
29 Oct - 23:41:15 10° NW 23:45:04 31° NNE 23:49:05 10° ENE night (unlit)
30 Oct - 01:21:35 10° WNW 01:25:58 86° NNE 01:30:38 10° ESE night (unlit)
30 Oct - 03:02:51 10° W 03:06:07 20° SW 03:09:31 10° S night (unlit)
30 Oct - 18:43:00 10° SSW 18:46:31 36° SE 18:50:11 10° ENE visible
30 Oct - 20:23:09 10° W 20:26:54 45° NNW 20:30:53 10° NE visible
30 Oct - 22:04:39 10° WNW 22:08:07 26° N 22:11:44 10° NE night (unlit)
30 Oct - 23:45:26 10° NW 23:49:24 37° NNE 23:53:35 10° E night (unlit)
31 Oct - 01:25:46 10° WNW 01:30:07 65° SW 01:34:43 10° SE night (unlit)
31 Oct - 03:08:16 10° WSW 03:10:03 12° SW 03:11:52 10° SSW night (unlit)
31 Oct - 18:46:49 10° SW 18:50:33 60° SE 18:54:29 10° ENE visible
31 Oct - 20:27:35 10° W 20:31:13 35° NNW 20:35:02 10° NE visible
31 Oct - 22:09:03 10° NW 22:12:30 26° N 22:16:08 10° ENE night (unlit)
31 Oct - 23:49:33 10° NW 23:53:41 48° NNE 23:58:03 10° E night (unlit)
01 Nov - 01:30:03 10° WNW 01:34:11 42° SW 01:38:33 10° SSE night (unlit)
01 Nov - 17:12:37 10° SSE 17:14:46 15° SE 17:16:58 10° E daylight
01 Nov - 18:50:53 10° WSW 18:54:41 86° NW 18:58:41 10° ENE visible
01 Nov - 20:32:05 10° WNW 20:35:33 29° NNW 20:39:12 10° NE visible
01 Nov - 22:13:20 10° NW 22:16:53 28° N 22:20:37 10° ENE night (unlit)
01 Nov - 23:53:41 10° NW 23:57:54 65° NNE 00:02:24 10° ESE night (unlit)
02 Nov - 01:34:29 10° WNW 01:38:13 27° SW 01:42:06 10° SSE night (unlit)
02 Nov - 17:15:37 10° S 17:18:42 24° SE 17:21:51 10° E daylight
02 Nov - 18:55:07 10° WSW 18:58:52 58° NNW 19:02:50 10° NE visible
02 Nov - 20:36:34 10° WNW 20:39:56 26° N 20:43:27 10° NE visible
02 Nov - 22:17:33 10° NW 22:21:14 31° NNE 22:25:08 10° ENE night (unlit)
02 Nov - 23:57:49 10° WNW 00:02:05 87° SSW 00:06:37 10° SE night (unlit)
03 Nov - 01:39:17 10° W 01:42:10 17° SW 01:45:10 10° S night (unlit)
03 Nov - 17:19:10 10° SSW 17:22:41 40° SE 17:26:20 10° ENE daylight
03 Nov - 18:59:29 10° W 19:03:07 41° NNW 19:06:56 10° NE visible
03 Nov - 20:41:00 10° WNW 20:44:19 25° N 20:47:46 10° NE visible
03 Nov - 22:21:41 10° NW 22:25:33 38° NNE 22:29:38 10° E night (unlit)
